Simultaneous Nadir Overpasses (SNOs) Predictions

Prediction of SNOs between LANDSAT-8 and METOP-B Satellite Orbit:

Table of predicted SNOs for the next 14.0 days since TLE Epoch: 3/21/2020
Index Date (LANDSAT-8) Time (LANDSAT-8) Lat,Lon (LANDSAT-8) SZA (LANDSAT-8 ) Date (METOP-B) Time (METOP-B) Lat,Lon (METOP-B) SZA (METOP-B ) Distance(km) Time Diff (sec)
1 03/21/2020 21:31:47 -81.07, 75.70 97.86 03/21/2020 21:30:47 -81.07, 75.58 97.90 2.10 60
2 03/21/2020 22:21:12 81.10,-116.22 82.19 03/21/2020 22:21:25 81.11,-116.05 82.22 3.07 13
3 03/24/2020 17:06:00 -81.09, 142.40 98.91 03/24/2020 17:05:09 -81.08, 142.39 98.93 0.31 51
4 03/24/2020 17:55:25 81.11, -49.55 81.14 03/24/2020 17:55:48 81.11, -49.62 81.14 1.29 23
5 03/27/2020 12:40:14 -81.08,-151.29 100.01 03/27/2020 12:39:32 -81.08,-151.19 100.01 1.92 42
6 03/27/2020 13:29:39 81.10, 16.72 80.04 03/27/2020 13:30:11 81.11, 16.80 80.07 1.42 32
7 03/30/2020 08:14:26 -81.09, -84.65 101.05 03/30/2020 08:13:54 -81.08, -84.78 101.08 2.33 32
8 03/30/2020 09:03:51 81.11, 83.34 79.00 03/30/2020 09:04:33 81.11, 83.20 79.00 2.42 42
9 04/02/2020 03:48:39 -81.10, -18.05 102.08 04/02/2020 03:48:16 -81.10, -18.02 102.09 0.69 23




NCC Satellite Simultaneous Nadir Overpasses (SNOs) Prediction Service
